Location: Saint-Palais-sur-Mer
(45.6429°N, 1.0859°W)
Time: 08:09:28
(UTC+02:00)

TIGRISAT - Pass Details

Date: 26 April 2024
Orbit: 594 x 672 km, 97.7° (Epoch: 20 May)

Event Time Altitude Azimuth Distance (km) Brightness Sun altitude
Rises 06:13:44 0° 175° (S) 2,920 ? -8.1°
Reaches altitude 10° 06:15:58 10° 179° (S) 2,004 ? -7.7°
Maximum altitude 06:20:16 59° 259° (W) 718 ? -7.1°
Drops below altitude 10° 06:24:30 10° 340° (NNW) 1,974 ? -6.4°
Sets 06:26:42 0° 344° (NNW) 2,873 ? -6.1°
